TimeEDT,TemperatureF,Dew PointF,Humidity,Sea Level PressureIn,VisibilityMPH,Wind Direction,Wind SpeedMPH,Gust SpeedMPH,PrecipitationIn,Events,Conditions,WindDirDegrees,DateUTC
12:15 AM,51.8,46.4,82,29.97,10.0,Calm,Calm,-,N/A,,Clear,0,2013-06-16 04:15:00
12:35 AM,53.6,46.4,77,29.98,10.0,SSW,3.5,-,N/A,,Clear,210,2013-06-16 04:35:00
12:55 AM,51.8,46.4,82,29.98,10.0,SW,3.5,-,N/A,,Clear,220,2013-06-16 04:55:00
1:15 AM,53.6,48.2,82,29.97,10.0,Calm,Calm,-,N/A,,Clear,0,2013-06-16 05:15:00
1:35 AM,51.8,46.4,82,29.97,10.0,SW,3.5,-,N/A,,Clear,230,2013-06-16 05:35:00
1:55 AM,51.8,48.2,88,29.97,10.0,Calm,Calm,-,N/A,,Clear,0,2013-06-16 05:55:00
2:15 AM,50.0,46.4,87,29.98,10.0,Calm,Calm,-,N/A,,Clear,0,2013-06-16 06:15:00
2:35 AM,51.8,46.4,82,29.97,10.0,Calm,Calm,-,N/A,,Clear,0,2013-06-16 06:35:00
2:55 AM,50.0,46.4,87,29.97,10.0,Calm,Calm,-,N/A,,Clear,0,2013-06-16 06:55:00
3:15 AM,50.0,46.4,87,29.97,10.0,Calm,Calm,-,N/A,,Clear,0,2013-06-16 07:15:00
3:35 AM,48.2,44.6,87,29.97,10.0,SW,3.5,-,N/A,,Clear,230,2013-06-16 07:35:00
3:55 AM,50.0,44.6,82,29.97,10.0,SW,3.5,-,N/A,,Clear,220,2013-06-16 07:55:00
4:15 AM,50.0,46.4,87,29.96,10.0,SSW,3.5,-,N/A,,Clear,210,2013-06-16 08:15:00
4:35 AM,48.2,44.6,87,29.97,10.0,SSW,3.5,-,N/A,,Clear,210,2013-06-16 08:35:00
4:55 AM,48.2,44.6,87,29.97,10.0,SSW,3.5,-,N/A,,Clear,200,2013-06-16 08:55:00
5:15 AM,48.2,44.6,87,29.96,10.0,SSW,3.5,-,N/A,,Clear,200,2013-06-16 09:15:00
5:35 AM,48.2,44.6,87,29.97,10.0,SW,3.5,-,N/A,,Clear,220,2013-06-16 09:35:00
5:55 AM,50.0,46.4,87,29.97,10.0,SW,3.5,-,N/A,,Clear,220,2013-06-16 09:55:00
6:15 AM,51.8,46.4,82,29.97,10.0,Calm,Calm,-,N/A,,Clear,0,2013-06-16 10:15:00
6:35 AM,55.4,50.0,82,29.97,10.0,Calm,Calm,-,N/A,,Clear,0,2013-06-16 10:35:00
6:55 AM,57.2,51.8,82,29.97,10.0,Calm,Calm,-,N/A,,Clear,0,2013-06-16 10:55:00
7:15 AM,60.8,50.0,68,29.98,10.0,Calm,Calm,-,N/A,,Clear,0,2013-06-16 11:15:00
7:35 AM,62.6,50.0,63,29.98,10.0,West,3.5,-,N/A,,Clear,260,2013-06-16 11:35:00
7:55 AM,64.4,51.8,64,29.98,10.0,WSW,3.5,-,N/A,,Clear,250,2013-06-16 11:55:00
8:15 AM,64.4,51.8,64,29.98,10.0,Calm,Calm,-,N/A,,Clear,0,2013-06-16 12:15:00
8:35 AM,66.2,53.6,64,29.97,10.0,SW,3.5,-,N/A,,Clear,220,2013-06-16 12:35:00
8:55 AM,66.2,53.6,64,29.97,10.0,SW,5.8,-,N/A,,Clear,220,2013-06-16 12:55:00
9:15 AM,68.0,51.8,56,29.97,10.0,Calm,Calm,-,N/A,,Clear,0,2013-06-16 13:15:00
9:35 AM,69.8,53.6,56,29.97,10.0,WSW,4.6,-,N/A,,Clear,240,2013-06-16 13:35:00
9:55 AM,71.6,51.8,50,29.96,10.0,SW,8.1,-,N/A,,Clear,230,2013-06-16 13:55:00
10:15 AM,69.8,48.2,46,29.96,10.0,WSW,5.8,-,N/A,,Clear,240,2013-06-16 14:15:00
10:35 AM,71.6,50.0,46,29.95,10.0,WSW,3.5,-,N/A,,Clear,250,2013-06-16 14:35:00
10:55 AM,73.4,51.8,47,29.94,10.0,SSW,4.6,-,N/A,,Clear,210,2013-06-16 14:55:00
11:15 AM,73.4,50.0,44,29.94,10.0,SW,9.2,-,N/A,,Clear,230,2013-06-16 15:15:00
11:35 AM,73.4,51.8,47,29.93,10.0,SW,5.8,-,N/A,,Clear,220,2013-06-16 15:35:00
11:55 AM,71.6,51.8,50,29.93,10.0,SW,5.8,-,N/A,,Clear,220,2013-06-16 15:55:00
12:15 PM,71.6,51.8,50,29.92,10.0,SW,6.9,-,N/A,,Clear,220,2013-06-16 16:15:00
12:35 PM,71.6,53.6,53,29.92,10.0,SSW,5.8,-,N/A,,Partly Cloudy,200,2013-06-16 16:35:00
12:55 PM,71.6,53.6,53,29.91,10.0,SSW,6.9,-,N/A,,Mostly Cloudy,210,2013-06-16 16:55:00
1:15 PM,73.4,55.4,53,29.90,10.0,SSW,5.8,-,N/A,,Mostly Cloudy,210,2013-06-16 17:15:00
1:35 PM,73.4,55.4,53,29.89,10.0,South,3.5,-,N/A,,Scattered Clouds,180,2013-06-16 17:35:00
1:55 PM,71.6,53.6,53,29.88,10.0,SSW,5.8,-,N/A,,Mostly Cloudy,210,2013-06-16 17:55:00
2:15 PM,71.6,53.6,53,29.87,10.0,SSW,3.5,-,N/A,,Mostly Cloudy,200,2013-06-16 18:15:00
2:35 PM,71.6,53.6,53,29.86,10.0,SSW,4.6,-,N/A,,Mostly Cloudy,210,2013-06-16 18:35:00
2:55 PM,71.6,53.6,53,29.85,10.0,SSW,4.6,16.1,N/A,,Mostly Cloudy,210,2013-06-16 18:55:00
3:15 PM,71.6,53.6,53,29.84,10.0,South,3.5,-,N/A,,Overcast,190,2013-06-16 19:15:00
3:35 PM,71.6,51.8,50,29.83,10.0,South,5.8,-,N/A,,Overcast,190,2013-06-16 19:35:00
3:55 PM,69.8,51.8,53,29.82,10.0,SSW,4.6,-,N/A,,Mostly Cloudy,200,2013-06-16 19:55:00
4:15 PM,71.6,53.6,53,29.81,10.0,SSW,4.6,-,N/A,,Mostly Cloudy,200,2013-06-16 20:15:00
4:35 PM,69.8,53.6,56,29.81,10.0,SSW,6.9,-,N/A,,Mostly Cloudy,200,2013-06-16 20:35:00
4:55 PM,69.8,53.6,56,29.80,10.0,SSW,4.6,-,N/A,,Mostly Cloudy,200,2013-06-16 20:55:00
5:35 PM,71.6,55.4,57,29.78,10.0,SSW,8.1,-,N/A,,Mostly Cloudy,200,2013-06-16 21:35:00
5:55 PM,69.8,57.2,64,29.78,10.0,South,4.6,-,N/A,,Mostly Cloudy,190,2013-06-16 21:55:00
6:15 PM,71.6,57.2,60,29.78,10.0,SW,3.5,-,N/A,,Scattered Clouds,220,2013-06-16 22:15:00
6:35 PM,69.8,59.0,68,29.78,10.0,SSW,5.8,-,N/A,,Clear,210,2013-06-16 22:35:00
6:55 PM,69.8,59.0,68,29.77,10.0,SSW,5.8,-,N/A,,Partly Cloudy,200,2013-06-16 22:55:00
7:15 PM,69.8,59.0,68,29.77,10.0,SSW,4.6,-,N/A,,Mostly Cloudy,210,2013-06-16 23:15:00
7:35 PM,69.8,59.0,68,29.77,10.0,SW,6.9,-,N/A,,Partly Cloudy,220,2013-06-16 23:35:00
7:55 PM,68.0,59.0,73,29.77,10.0,SSW,5.8,-,N/A,,Partly Cloudy,210,2013-06-16 23:55:00
8:15 PM,68.0,60.8,78,29.77,10.0,SSW,5.8,-,N/A,,Clear,210,2013-06-17 00:15:00
8:35 PM,68.0,60.8,78,29.78,10.0,SSW,5.8,-,N/A,,Scattered Clouds,210,2013-06-17 00:35:00
8:55 PM,68.0,60.8,78,29.78,10.0,SW,3.5,-,N/A,,Partly Cloudy,230,2013-06-17 00:55:00
9:15 PM,66.2,60.8,83,29.78,10.0,SW,3.5,-,N/A,,Scattered Clouds,220,2013-06-17 01:15:00
9:35 PM,66.2,60.8,83,29.79,10.0,SSW,3.5,-,N/A,,Mostly Cloudy,210,2013-06-17 01:35:00
9:55 PM,66.2,60.8,83,29.79,10.0,SW,3.5,-,N/A,,Partly Cloudy,220,2013-06-17 01:55:00
10:15 PM,66.2,60.8,83,29.79,10.0,SW,3.5,-,N/A,,Clear,230,2013-06-17 02:15:00
10:35 PM,66.2,60.8,83,29.80,10.0,WSW,6.9,-,N/A,,Clear,240,2013-06-17 02:35:00
10:55 PM,66.2,60.8,83,29.81,10.0,WSW,5.8,-,N/A,,Clear,250,2013-06-17 02:55:00
11:15 PM,66.2,60.8,83,29.81,10.0,WSW,4.6,-,N/A,,Clear,240,2013-06-17 03:15:00
11:35 PM,66.2,60.8,83,29.82,10.0,WSW,5.8,-,N/A,,Clear,250,2013-06-17 03:35:00
11:55 PM,66.2,60.8,83,29.83,10.0,West,8.1,-,N/A,,Clear,280,2013-06-17 03:55:00